Glenshire Elementary, Truckee, California Weather observations

Data are for observation ending at time listed.
 Day   Time    Ave.   Ave.  Ave.  Vector   Max.   Stn.    Total    Solar   Ave.   Snow 
  of    of     Air    Rel.  Wind   Wind    Wind   Baro.  Precip.   Rad.    Soil   Depth
Year   Day     Temp.  Hum.  Speed  Dir.    Gust   Pres.                    Temp.       
2014   (PST)    F      %     mph   deg.    mph     mb.     in.     W/m2     F      in. 
---------------------------------------------------------------------------------------  
 353   11:20   32.2    93    0.4    84      0.4   821.4    0.00      64    42.3   999.0
 353   11:30   32.2    93    0.4    73      0.4   821.5    0.00      64    42.3   999.0
 353   11:40   32.3    93    0.4    78      0.4   821.5    0.00      64    42.3   999.0
 353   11:50   32.6    93    0.4    77      0.4   821.5    0.01      64    42.3   999.0
 353   12:00   32.7    93    0.4   134      0.4   821.5    0.02      64    42.3   999.0
 353   12:10   32.4    93    0.4   181      0.4   821.7    0.01      64    42.3   999.0
 353   12:20   32.2    93    0.4    84      0.4   821.9    0.00      61    42.3   999.0
 353   12:30   32.1    94    0.4    90      0.4   821.9    0.00       5    42.3   999.0
 353   12:40   32.1    94    0.4    76      0.4   821.9    0.00       0    42.3   999.0
 353   12:50   32.1    94    0.4    78      0.4   821.9    0.00       0    42.2   999.0
 353   13:00   32.0    94    0.4   255      0.4   821.7    0.01       0    42.2   999.0
 353   13:10   32.3    94    0.4   287      0.4   821.5    0.01      47    42.2   999.0
 353   13:20   33.3    94    0.4   291      0.4   821.3    0.03      67    42.3   999.0
 353   13:30   34.6    92    0.4   106      0.4   821.3    0.03      75    42.3   999.0
 353   13:40   35.3    90    0.4   202      0.4   821.2    0.03      97    42.3   999.0
 353   13:50   35.8    88    0.4   197      0.4   821.1    0.04      76    42.3   999.0
 353   14:00   35.6    88    0.4   226      0.4   821.0    0.03      64    42.3   999.0
 353   14:10   34.6    89    1.0    70      4.6   821.1    0.02      64    42.3   999.0
 353   14:20   35.1    90    0.4   267      0.4   821.0    0.00      66    42.2   999.0
 353   14:30   35.7    90    0.4   263      0.4   821.1    0.00      72    42.2   999.0
 353   14:40   35.6    90    0.4   348      0.4   821.0    0.00      64    42.3   999.0
 353   14:50   35.5    90    0.4    65      0.4   821.0    0.00      97    42.3   999.0
 353   15:00   35.4    90    0.4    74      0.4   821.1    0.00      66    42.3   999.0
 353   15:10   35.1    90    0.4    62      0.4   821.1    0.00      64    42.2   999.0
 353   15:20   35.0    90    0.4    69      0.4   821.0    0.00      64    42.2   999.0
 353   15:30   34.5    90    0.4   127      0.4   820.9    0.01      64    42.2   999.0
 353   15:40   34.2    91    0.4   116      0.4   820.8    0.00      64    42.3   999.0
 353   15:50   34.0    92    0.4    97      0.4   820.8    0.00      46    42.3   999.0
 353   16:00   33.8    92    0.4    71      0.4   820.8    0.00       7    42.2   999.0
 353   16:10   33.6    93    0.4    71      0.4   820.7    0.00       0    42.3   999.0
 353   16:20   33.3    93    0.4    90      0.4   820.7    0.00       0    42.3   999.0
 353   16:30   33.1    94    0.4   100      0.4   820.5    0.00       0    42.3   999.0
 353   16:40   32.9    94    0.4   100      0.4   820.6    0.00       0    42.3   999.0
 353   16:50   32.8    94    0.4   100      0.4   820.8    0.00       0    42.3   999.0
 353   17:00   32.6    94    0.4   100      0.4   820.8    0.00       0    42.3   999.0
 353   17:10   32.5    94    0.4   100      0.4   820.9    0.00       0    42.2   999.0
 353   17:20   32.5    95    0.4   109      0.4   821.0    0.01       0    42.2   999.0
 353   17:30   32.5    95    0.4   167      0.4   821.0    0.00       0    42.2   999.0
 353   17:40   32.4    95    0.4   208      0.4   821.0    0.00       0    42.2   999.0
 353   17:50   32.4    95    0.4   215      2.1   820.9    0.00       0    42.2   999.0
 353   18:00   32.5    95    0.4   256      0.4   821.0    0.00       0    42.2   999.0
 353   18:10   32.5    95    0.4   248      0.4   821.1    0.00       0    42.2   999.0
 353   18:20   32.6    95    0.4   274      0.4   821.1    0.00       0    42.2   999.0
 353   18:30   32.6    95    0.4    75      0.4   821.1    0.00       0    42.2   999.0
 353   18:40   32.4    95    0.5    69      3.8   821.2    0.00       0    42.2   999.0
 353   18:50   32.2    95    0.4    76      0.4   821.1    0.01       0    42.2   999.0
 353   19:00   32.1    96    0.4    74      0.4   820.9    0.00       0    42.2   999.0
 353   19:10   32.1    96    0.4    89      0.4   820.8    0.01       0    42.2   999.0
 353   19:20   32.1    96    0.4   111      0.4   820.9    0.00       0    42.2   999.0
 353   19:30   32.1    96    0.4   109      0.4   821.0    0.00       0    42.2   999.0
 353   19:40   32.2    96    0.4    71      0.4   821.0    0.00       0    42.2   999.0
 353   19:50   32.3    96    0.4    49      0.4   821.0    0.00       0    42.2   999.0
 353   20:00   32.3    96    0.4    72      0.4   820.8    0.00       0    42.2   999.0
 353   20:10   32.1    96    0.4    72      0.4   820.5    0.00       0    42.2   999.0
 353   20:20   31.9    96    0.4    72      0.4   820.6    0.00       0    42.2   999.0
 353   20:30   31.8    96    0.4    72      0.4   820.6    0.00       0    42.2   999.0
 353   20:40   31.9    96    0.4    72      0.4   820.6    0.00       0    42.2   999.0
 353   20:50   32.0    96    0.4    72      0.4   820.6    0.00       0    42.2   999.0
 353   21:00   31.9    96    0.4    72      0.4   820.7    0.00       0    42.2   999.0
 353   21:10   32.1    96    0.4    72      0.4   820.9    0.00       0    42.2   999.0
 353   21:20   32.1    96    0.4    72      0.4   821.2    0.00       0    42.2   999.0
 353   21:30   32.2    96    0.4    68      0.4   821.3    0.00       0    42.2   999.0
 353   21:40   32.2    96    0.4    56      0.4   821.4    0.00       0    42.2   999.0
 353   21:50   32.3    96    0.4   272      0.4   821.5    0.00       0    42.2   999.0
 353   22:00   32.2    96    0.4   257      0.4   821.5    0.00       0    42.2   999.0
 353   22:10   32.1    96    0.4   257      0.4   821.7    0.00       0    42.2   999.0
 353   22:20   32.2    96    0.4   257      0.4   821.6    0.00       0    42.2   999.0
 353   22:30   32.2    96    0.4    79      0.4   821.7    0.00       0    42.2   999.0
 353   22:40   32.3    96    0.4    80      0.4   821.7    0.00       0    42.2   999.0
 353   22:50   32.3    96    0.4    95      0.4   821.8    0.00       0    42.2   999.0
 353   23:00   32.8    96    0.4   245      0.4   821.5    0.01       0    42.2   999.0
 353   23:10   33.0    96    0.4   250      0.4   821.4    0.00       0    42.2   999.0
 353   23:20   32.8    96    0.4   250      0.4   821.4    0.00       0    42.2   999.0
 353   23:30   32.6    96    0.4   141      0.4   821.3    0.00       0    42.2   999.0
 353   23:40   32.7    96    0.4   136      0.4   821.2    0.00       0    42.2   999.0
 353   23:50   32.8    96    0.4   136      0.4   820.8    0.00       0    42.2   999.0
 354    0:00   32.7    96    0.4   132      0.4   820.5    0.00       0    42.2   999.0
 354    0:10   32.6    96    0.4    90      0.4   820.6    0.00       0    42.2   999.0
 354    0:20   32.5    96    0.4    87      0.4   820.9    0.00       0    42.2   999.0
 354    0:30   32.5    96    0.4    42      0.4   820.9    0.00       0    42.2   999.0
 354    0:40   32.4    96    0.4    42      0.4   820.9    0.00       0    42.2   999.0
 354    0:50   32.3    96    0.4    42      0.4   820.7    0.00       0    42.2   999.0
 354    1:00   32.3    96    0.4    59      0.4   820.7    0.00       0    42.2   999.0
 354    1:10   32.3    96    0.4   256      0.4   820.5    0.00       0    42.2   999.0
 354    1:20   32.3    96    0.4   258      0.4   820.2    0.00       0    42.2   999.0
 354    1:30   32.2    96    0.4   259      0.4   820.1    0.00       0    42.2   999.0
 354    1:40   32.1    96    0.4   264      0.4   820.2    0.00       0    42.2   999.0
 354    1:50   32.2    96    0.4   264      0.4   820.2    0.00       0    42.2   999.0
 354    2:00   32.3    96    0.4   264      0.4   820.0    0.00       0    42.2   999.0
 354    2:10   32.2    96    0.4   264      0.4   820.0    0.00       0    42.2   999.0
 354    2:20   32.2    96    0.4   264      0.4   820.0    0.00       0    42.2   999.0
 354    2:30   32.2    96    0.4    71      0.4   820.0    0.00       0    42.2   999.0
 354    2:40   32.2    96    0.4    71      0.4   819.8    0.00       0    42.2   999.0
 354    2:50   32.2    96    0.4    78      0.4   820.0    0.00       0    42.2   999.0
 354    3:00   32.3    96    0.4    69      0.4   820.5    0.00       0    42.2   999.0
 354    3:10   32.5    96    0.4    69      0.4   820.5    0.00       0    42.2   999.0
 354    3:20   32.7    96    0.6   197      6.3   820.3    0.00       0    42.2   999.0
 354    3:30   32.7    96    0.4    83      0.4   820.2    0.01       0    42.2   999.0
 354    3:40   32.9    96    0.4     5      0.4   820.2    0.00       0    42.2   999.0
 354    3:50   33.1    96    0.4    81      0.4   820.5    0.00       0    42.2   999.0
 354    4:00   33.1    96    0.4   265      0.4   820.5    0.00       0    42.2   999.0
 354    4:10   33.0    96    0.4   281      0.4   820.2    0.01       0    42.2   999.0
 354    4:20   33.0    96    0.4    31      0.4   820.2    0.00       0    42.2   999.0
 354    4:30   32.9    96    0.4   258      0.4   820.3    0.00       0    42.2   999.0
 354    4:40   32.9    96    0.4   108      0.4   820.2    0.01       0    42.2   999.0
 354    4:50   33.1    96    0.4   231      2.9   820.0    0.00       0    42.2   999.0
 354    5:00   33.3    96    0.4   303      0.4   820.2    0.00       0    42.2   999.0
 354    5:10   33.2    96    0.4   283      0.4   820.5    0.00       0    42.2   999.0
 354    5:20   33.1    96    0.4   304      0.4   820.2    0.01       0    42.2   999.0
 354    5:30   32.8    96    0.4    62      0.4   820.3    0.00       0    42.2   999.0
 354    5:40   32.8    96    0.4    98      0.4   820.5    0.00       0    42.2   999.0
 354    5:50   32.9    96    0.4   193      0.4   820.5    0.01       0    42.2   999.0
 354    6:00   32.8    96    0.4   244      0.4   820.4    0.00       0    42.2   999.0
 354    6:10   32.8    96    0.4   241      0.4   820.8    0.00       0    42.2   999.0
 354    6:20   32.8    96    0.4   222      0.4   820.8    0.00       0    42.2   999.0
 354    6:30   32.8    96    0.4    47      0.4   820.7    0.00       0    42.2   999.0
 354    6:40   32.7    96    0.4   247      0.4   820.7    0.01       0    42.2   999.0
 354    6:50   32.7    96    0.4   262      0.4   820.8    0.00       0    42.2   999.0
 354    7:00   32.6    96    0.4   248      0.4   821.0    0.00       0    42.2   999.0
 354    7:10   32.6    96    0.4   244      0.4   820.9    0.00       0    42.2   999.0
 354    7:20   32.5    96    0.4   267      0.4   820.9    0.00       0    42.2   999.0
 354    7:30   32.8    96    0.4   335      0.4   821.1    0.00       0    42.2   999.0
 354    7:40   32.8    95    0.5     6      8.0   821.0    0.00       0    42.2   999.0
 354    7:50   32.8    95    0.4   232      0.4   821.0    0.00       0    42.2   999.0
 354    8:00   32.8    95    0.4   239      0.4   820.9    0.00      42    42.2   999.0
 354    8:10   33.0    95    0.4   234      0.4   820.9    0.00      53    42.2   999.0
 354    8:20   33.1    95    0.4    72      0.4   821.1    0.00      62    42.2   999.0
 354    8:30   33.2    95    0.4    93      0.4   821.3    0.01      56    42.2   999.0
 354    8:40   33.7    95    0.4    88      0.4   821.5    0.00      64    42.2   999.0
 354    8:50   34.5    95    0.4    68      0.4   821.5    0.00      64    42.2   999.0
 354    9:00   34.9    95    0.4    68      0.4   821.6    0.00      53    42.2   999.0
 354    9:10   34.3    94    0.4    70      0.4   821.7    0.00      63    42.2   999.0
 354    9:20   34.6    95    0.4    85      0.4   821.9    0.00      58    42.2   999.0
 354    9:30   34.7    94    0.4    96      0.4   822.0    0.00      43    42.2   999.0
 354    9:40   34.6    94    0.4    87      0.4   822.2    0.00       0    42.2   999.0
 354    9:50   34.5    94    0.4    82      0.4   822.3    0.00      19    42.2   999.0
 354   10:00   34.9    94    0.4    57      0.4   822.3    0.00      58    42.2   999.0
 354   10:10   35.0    94    0.4   304      0.4   822.4    0.00      37    42.2   999.0
 354   10:20   35.0    94    0.4   101      0.4   822.3    0.00      64    42.2   999.0
 354   10:30   35.5    94    0.4   108      0.4   822.4    0.00      64    42.2   999.0
 354   10:40   35.5    94    0.4   350      0.4   822.3    0.00      73    42.2   999.0
 354   10:50   35.6    93    0.4    44      0.4   822.3    0.00     113    42.2   999.0
 354   11:00   35.6    92    0.4    74      0.4   822.2    0.00      64    42.2   999.0
 354   11:10   35.8    92    0.4    71      0.4   822.0    0.00      93    42.2   999.0

Return to Glenshire Elementary graphs page.


Western Regional Climate Center,wrcc@dri.edu